Weather History for Page, AZ

Change the Weather History Date:

Sunday, March 4, 2012

  Actual Average Record
Temperature  
Mean Temperature 44 °F -  
Max Temperature 57 °F 54 °F 72 °F (1972)
Min Temperature 32 °F 34 °F 19 °F (1965)
Degree Days  
Heating Degree Days 20    
Moisture  
Dew Point 20 °F    
Average Humidity 41    
Maximum Humidity 59    
Minimum Humidity 21    
Precipitation  
Precipitation 0.00 in - - ()
Sea Level Pressure  
Sea Level Pressure 30.29 in    
Wind  
Wind Speed 2 mph (NNE)    
Max Wind Speed 6 mph    
Max Gust Speed -    
Visibility 9 miles    
Events      
Averages and records for this station are not official NWS values.
T = Trace of Precipitation, MM = Missing Value Source: NWS Daily Summary

Daily Weather History Graph

Daily Weather History Graph

Search for Another Location

Airport:

Trip Planner

Search our weather history database for the weather conditions in past years. The results will help you decide how hot, cold, wet, or windy it might be!

Date:

Astronomy

Mar. 04, 2012 Rise Set
Actual Time 6:51 AM MST 6:23 PM MST
Civil Twilight 6:25 AM MST 6:49 PM MST
Nautical Twilight 5:55 AM MST 7:19 PM MST
Astronomical Twilight 5:25 AM MST 7:49 PM MST
Moon 2:44 PM MST (3/4) 4:09 AM MST (3/4)
Length of Visible Light 12h 23m
Length of Day
11h 31m
Waxing Gibbous, 84% of the Moon is Illuminated
Mar 4
Waxing Gibbous
Mar 8
Full
Mar 14
Last Quarter
Mar 22
New
Mar 30
First Quarter

Hourly Weather History & Observations

Time (MST) Temp. Windchill Dew Point Humidity Pressure Visibility Wind Dir Wind Speed Gust Speed Precip Events Conditions
12:53 AM 37.0 °F 34.5 °F 16.0 °F 42% 30.34 in 9.0 mi SW 3.5 mph - N/A   Clear
1:53 AM 37.9 °F - 17.1 °F 43% 30.32 in 9.0 mi Calm Calm - N/A   Clear
2:53 AM 36.0 °F 33.3 °F 19.0 °F 50% 30.32 in 10.0 mi East 3.5 mph - N/A   Clear
3:53 AM 34.0 °F - 19.9 °F 56% 30.32 in 8.0 mi Calm Calm - N/A   Clear
4:53 AM 34.0 °F - 19.9 °F 56% 30.33 in 10.0 mi Calm Calm - N/A   Clear
5:28 AM 33.8 °F - 19.4 °F 56% 30.35 in 1.8 mi Calm Calm - N/A   Haze
5:36 AM 33.8 °F - 19.4 °F 56% 30.35 in 3.0 mi Calm Calm - N/A   Haze
5:53 AM 33.1 °F - 19.9 °F 59% 30.35 in 7.0 mi Calm Calm - N/A   Clear
6:53 AM 32.0 °F - 19.0 °F 59% 30.37 in 10.0 mi Calm Calm - N/A   Clear
7:53 AM 37.0 °F - 21.9 °F 54% 30.37 in 10.0 mi Calm Calm - N/A   Clear
8:53 AM 41.0 °F - 21.9 °F 47% 30.38 in 10.0 mi Calm Calm - N/A   Clear
9:53 AM 44.1 °F - 21.9 °F 42% 30.38 in 10.0 mi Calm Calm - N/A   Clear
10:53 AM 46.9 °F - 21.9 °F 37% 30.36 in 10.0 mi North 3.5 mph - N/A   Clear
11:53 AM 50.0 °F - 21.0 °F 32% 30.34 in 10.0 mi ENE 4.6 mph - N/A   Clear
12:53 PM 52.0 °F - 19.9 °F 28% 30.31 in 10.0 mi NNE 5.8 mph - N/A   Clear
1:53 PM 55.0 °F - 19.9 °F 25% 30.26 in 10.0 mi Variable 5.8 mph - N/A   Clear
2:53 PM 57.0 °F - 19.9 °F 24% 30.23 in 10.0 mi Calm Calm - N/A   Clear
3:53 PM 57.9 °F - 19.0 °F 22% 30.22 in 10.0 mi Variable 4.6 mph - N/A   Clear
4:53 PM 57.9 °F - 18.0 °F 21% 30.21 in 10.0 mi NE 5.8 mph - N/A   Clear
5:53 PM 55.9 °F - 19.9 °F 25% 30.21 in 10.0 mi NNE 3.5 mph - N/A   Clear
6:53 PM 51.1 °F - 19.9 °F 29% 30.22 in 10.0 mi NE 4.6 mph - N/A   Clear
7:53 PM 48.0 °F - 21.0 °F 34% 30.21 in 10.0 mi Calm Calm - N/A   Clear
8:53 PM 46.0 °F - 21.0 °F 37% 30.21 in 6.0 mi Calm Calm - N/A   Haze
9:53 PM 44.1 °F 42.5 °F 21.0 °F 40% 30.22 in 10.0 mi WSW 3.5 mph - N/A   Clear
10:53 PM 43.0 °F - 21.0 °F 42% 30.21 in 10.0 mi Calm Calm - N/A   Clear
11:53 PM 42.8 °F - 21.2 °F 42% 30.24 in 10.0 mi Calm Calm - N/A   Clear